Theta_e
317 317 317 317 317 318 318 318 318 319 319 319 319 319 319 318 317 313 304 311 315 328 337 347 340 336 339 334 338 337 318 312 316 316 319 329 327 336 338 328 332 331 328 333 340
317 317 317 317 317 317 317 317 318 318 319 318 318 318 319 318 310 306 316 325 330 336 327 335 327 331 328 330 332 328 317 317 324 324 320 329 329 331 330 328 327 327 334 336 342
317 316 316 317 317 317 317 317 317 318 318 318 318 318 320 315 301 302 337 328 332 337 324 329 328 328 323 327 328 327 319 327 326 325 327 328 329 334 329 324 326 325 329 333 339
317 316 316 316 317 317 317 317 317 317 317 318 317 317 318 308 292 313 341 332 334 335 332 322 321 311 312 313 325 319 326 329 329 330 325 325 328 330 331 330 332 331 333 333 337
316 316 316 316 316 317 318 318 317 317 317 317 317 317 310 299 300 313 336 330 327 322 323 312 316 306 307 311 313 319 321 326 330 328 326 327 327 330 331 333 332 333 333 332 336
316 317 316 316 317 317 317 317 316 316 318 320 317 318 304 291 305 315 327 324 326 316 316 308 315 308 305 305 310 314 319 320 321 319 322 322 325 330 330 332 329 331 330 332 336
315 316 315 315 316 316 316 316 315 317 319 321 319 315 305 300 313 315 316 321 320 313 309 308 309 308 303 301 308 309 304 308 311 316 321 327 323 326 330 330 327 329 330 331 335
315 315 315 315 315 315 314 314 315 319 319 320 321 312 301 315 315 316 310 312 321 316 307 308 307 302 300 303 302 302 302 300 307 313 320 321 311 328 329 327 325 328 329 331 334
315 315 314 314 313 313 313 313 317 321 321 322 309 304 299 318 308 305 308 308 317 314 313 314 306 298 299 296 294 294 294 298 304 313 320 317 312 328 328 327 324 326 327 330 332
314 313 313 313 312 312 312 313 323 321 320 319 316 298 299 297 300 303 303 313 313 312 309 302 299 293 291 292 288 291 291 296 302 310 317 315 315 326 326 325 325 325 326 328 331
314 313 312 312 311 311 307 297 293 292 295 289 292 294 297 299 301 303 303 308 306 304 297 298 292 292 294 296 296 297 297 298 303 311 315 314 315 325 327 324 323 324 325 326 329
313 313 312 311 311 311 300 296 296 297 289 294 295 295 297 295 295 300 303 304 302 297 297 293 291 297 298 296 296 296 294 295 301 308 314 313 314 324 326 326 325 324 324 327 329
313 312 311 310 309 302 298 296 300 292 286 291 294 294 295 294 294 296 299 297 297 298 296 292 295 300 297 294 293 293 295 294 297 305 316 312 310 319 326 329 329 330 329 328 329
312 312 310 309 299 298 295 299 301 296 282 288 290 294 297 295 291 300 299 297 296 297 299 297 302 299 296 294 295 287 298 299 298 297 297 311 296 310 320 324 326 328 329 330 331
312 311 309 308 296 295 298 300 296 291 275 292 290 298 295 291 293 295 301 298 293 294 294 296 298 299 295 296 298 294 299 298 298 296 296 301 301 305 317 318 323 327 329 331 333
312 310 309 302 297 300 301 299 292 282 276 287 291 290 289 290 292 296 300 302 302 297 297 295 300 299 301 302 301 301 299 296 295 293 289 296 301 296 309 316 321 327 330 332 333
310 308 305 305 298 302 300 291 281 277 289 285 284 288 286 286 289 291 293 292 289 286 287 294 297 298 301 297 301 300 294 286 285 286 289 296 296 299 307 318 321 323 327 330 335
308 306 302 305 304 301 293 287 277 286 282 287 287 287 285 287 285 289 287 287 293 290 286 284 287 295 298 297 296 297 294 287 281 283 289 293 291 298 308 316 321 324 326 328 331
306 296 296 300 303 296 290 279 280 283 288 286 285 283 282 286 287 285 285 288 292 291 285 285 287 296 298 300 298 296 294 298 288 286 286 293 295 302 305 309 314 320 322 325 328
297 290 294 303 299 293 286 283 283 289 291 287 282 284 280 282 283 281 283 290 292 294 291 288 281 292 296 299 300 295 300 293 289 284 282 288 290 298 301 304 309 315 321 323 327
291 289 297 302 295 290 282 281 288 293 293 286 284 282 282 282 283 282 283 290 293 293 293 287 286 286 293 292 292 294 294 294 296 292 288 283 289 297 302 307 308 312 321 323 325
289 283 297 297 288 284 283 286 292 291 293 289 287 285 283 284 282 282 284 288 295 293 287 289 289 284 287 295 298 295 292 294 294 290 290 288 293 302 303 305 309 312 318 324 326
292 290 297 295 282 282 285 288 290 290 290 290 288 287 286 284 281 284 288 295 296 293 289 291 287 280 284 287 292 290 292 290 292 292 292 292 293 303 302 302 303 305 313 322 326
292 284 289 289 287 287 287 286 287 293 291 292 289 289 285 282 284 283 287 293 295 295 300 294 286 284 279 283 287 285 289 291 287 288 292 295 296 299 304 301 303 304 306 311 323
288 284 288 286 287 290 290 288 286 286 292 293 289 289 288 281 282 282 286 288 293 296 294 288 283 283 285 287 288 287 287 289 288 289 287 296 295 299 301 304 305 304 309 310 311
288 291 293 291 292 290 290 288 288 290 290 287 289 290 290 286 284 282 284 282 286 288 288 290 279 287 284 288 288 287 289 290 291 292 292 295 295 302 305 309 316 317 319 314 310
298 300 295 292 291 289 289 289 289 292 291 292 292 288 286 289 293 293 291 288 286 286 284 286 284 284 278 286 286 284 289 293 296 296 297 292 298 303 312 314 312 314 319 320 321
Wind_Speed
19 20 20 20 20 19 19 20 20 19 17 16 17 14 11 11 9 2 9 15 14 12 8 12 5 6 7 4 3 4 0 3 4 2 2 5 5 3 6 14 6 7 7 16 18
21 21 21 21 20 20 20 19 19 20 19 16 15 15 12 9 3 8 15 15 19 15 9 17 10 9 3 5 3 4 2 6 4 3 2 4 6 9 7 12 3 10 19 22 18
22 23 23 24 23 22 21 20 19 18 18 18 13 11 11 5 4 7 9 22 21 15 6 8 13 7 4 4 4 5 5 4 2 3 6 7 4 4 13 5 8 25 25 23 22
23 24 24 24 25 26 24 21 19 17 15 15 11 8 4 1 1 4 16 18 20 11 12 10 9 8 6 7 6 4 8 9 5 5 1 5 7 4 10 4 15 24 29 25 25
24 25 25 25 26 26 26 24 19 18 13 9 7 6 1 1 9 12 5 16 10 8 14 8 14 7 8 7 4 9 3 3 6 8 9 6 7 5 11 9 19 23 23 20 21
25 25 26 26 26 27 26 25 21 19 13 7 8 6 2 2 1 12 7 8 8 9 8 8 11 6 5 5 9 6 8 10 8 8 7 5 3 6 5 17 19 25 24 19 19
24 26 27 27 28 28 28 24 22 18 8 10 12 3 2 10 5 6 5 7 2 8 8 4 6 9 6 4 8 4 4 4 6 5 7 3 2 5 13 17 21 21 21 19 18
24 25 27 26 27 27 28 23 20 8 6 11 11 2 6 5 5 9 3 4 6 5 3 5 5 2 2 3 4 5 4 1 5 9 6 10 9 4 13 18 20 21 20 19 18
24 25 28 27 28 28 27 22 10 8 10 10 2 3 6 4 5 5 4 3 6 4 5 3 3 2 1 3 5 5 4 7 3 7 3 9 5 9 14 15 18 19 20 19 16
25 25 27 28 27 27 25 11 11 8 5 5 2 2 3 7 6 9 3 5 5 9 3 1 3 2 2 5 9 6 4 4 6 7 8 7 7 13 15 16 17 18 19 19 19
27 27 28 29 28 26 11 3 8 6 8 1 7 4 7 9 5 7 3 4 5 5 8 6 5 20 22 13 3 5 5 6 4 5 6 11 10 15 16 13 15 17 18 19 19
27 26 26 28 27 20 3 8 6 6 9 4 7 6 9 2 4 19 8 4 5 5 6 4 14 14 8 5 5 6 3 4 4 3 6 6 15 10 19 22 20 18 19 19 17
27 27 28 28 25 4 2 6 2 4 1 8 4 4 8 2 2 12 7 5 4 6 7 8 6 13 13 8 11 8 16 6 3 2 7 4 5 6 12 8 13 15 17 16 20
29 30 29 29 4 4 2 1 7 5 6 6 4 5 10 3 3 4 7 1 2 6 8 8 9 10 13 15 11 9 15 12 6 2 4 8 6 6 8 17 18 18 19 17 20
29 30 28 8 2 2 5 7 3 4 3 3 4 3 9 6 6 11 8 6 4 5 3 6 7 10 13 15 14 11 9 14 12 6 4 4 3 7 11 12 20 21 21 20 19
30 31 26 3 1 7 6 7 3 7 5 3 3 5 6 7 7 6 8 6 2 5 2 7 3 3 15 13 16 6 1 4 4 5 10 12 7 7 8 17 18 20 20 21 22
29 29 13 3 4 6 6 4 6 4 4 2 3 4 3 6 7 7 5 10 5 7 8 7 4 2 5 2 14 13 11 2 3 6 13 11 13 14 6 13 18 21 23 22 21
30 23 4 3 6 5 3 6 4 2 2 2 2 1 4 4 2 6 3 3 7 4 3 5 2 3 4 7 9 15 11 8 9 5 12 5 10 9 20 10 12 18 18 16 18
25 5 3 4 7 1 6 3 4 2 4 3 2 2 1 2 2 3 3 3 2 3 5 3 7 7 5 4 2 7 19 10 5 1 1 10 5 8 6 19 17 13 11 18 22
6 4 5 12 5 4 6 3 2 0 4 1 5 3 3 2 2 0 2 3 5 2 2 3 5 3 9 7 10 9 3 8 3 8 5 4 7 11 11 10 13 7 13 17 21
5 5 4 15 4 7 3 3 4 4 3 3 5 3 4 4 4 3 4 3 6 4 4 4 3 7 6 5 5 5 9 6 7 8 9 2 7 7 12 16 15 13 16 16 19
4 4 7 8 7 3 2 6 6 4 3 4 3 6 6 7 5 4 7 4 5 6 3 2 1 5 10 13 8 5 5 7 8 12 6 4 8 4 10 9 12 15 16 17 20
5 4 6 5 5 4 6 5 5 5 4 4 4 3 2 5 3 5 3 3 7 5 7 5 2 4 9 2 2 0 4 5 5 3 15 14 7 6 6 7 9 10 8 13 16
3 5 5 6 1 2 6 5 6 5 9 3 4 2 1 2 4 4 4 6 4 5 9 5 2 7 8 1 5 7 14 10 2 6 6 14 8 8 11 8 7 8 7 9 11
3 0 2 4 3 5 3 4 7 6 7 7 4 3 5 3 2 5 5 3 4 5 4 5 5 8 18 21 14 14 18 18 6 9 5 6 10 10 11 11 9 6 5 6 9
2 2 1 3 7 5 2 2 6 6 3 7 7 9 4 4 4 3 3 2 5 3 5 6 4 9 17 14 17 16 17 16 18 19 12 15 12 4 5 3 8 6 4 8 12
1 0 2 4 3 2 2 5 10 13 6 11 11 4 5 13 11 12 12 6 6 8 8 9 4 3 7 3 7 6 18 13 6 9 5 6 1 6 2 6 7 9 9 11 12
Wind_Direction
352 349 346 342 339 335 330 325 321 318 315 313 314 316 314 316 305 211 235 219 189 216 157 133 133 142 166 184 239 137 295 237 251 201 159 150 148 65 126 142 178 184 141 138 145
351 347 344 341 337 333 328 323 318 316 313 312 309 309 310 326 264 235 245 219 205 182 145 157 160 153 156 183 217 203 188 226 221 165 167 157 172 132 147 156 83 100 117 138 145
350 346 342 340 337 332 328 324 320 315 309 307 306 301 305 340 296 238 289 207 200 180 158 140 138 138 143 151 212 186 214 222 303 116 153 149 140 140 144 209 178 150 148 154 155
347 343 339 338 334 331 327 326 324 317 309 299 296 291 318 303 303 29 340 173 188 162 138 137 148 138 145 191 203 209 228 261 310 352 262 176 149 151 173 215 154 163 157 156 164
345 340 336 333 332 327 325 324 328 318 311 288 267 245 123 1 257 329 94 155 165 162 167 152 159 136 161 191 169 235 209 258 247 292 286 161 172 182 204 113 140 150 155 162 164
344 338 336 332 332 327 324 323 329 320 313 263 196 173 186 240 203 10 97 142 174 174 170 156 179 157 164 185 189 221 238 280 286 272 281 225 148 157 116 135 147 156 161 167 172
343 336 333 331 331 327 322 325 326 319 319 151 165 152 45 243 331 339 243 179 242 197 166 179 147 166 140 140 241 261 314 320 230 224 232 185 282 220 141 144 153 164 165 170 176
339 335 330 331 330 326 319 326 322 315 117 142 165 232 253 249 284 302 222 189 189 202 13 78 47 50 179 269 10 178 111 186 276 180 242 150 239 118 148 148 165 167 173 176 184
337 338 332 334 334 327 320 326 323 136 133 152 80 97 334 293 322 301 214 201 145 116 329 185 87 203 311 73 6 358 194 196 287 199 158 181 222 157 163 164 172 176 177 182 184
340 340 334 335 335 328 326 331 117 116 140 190 193 319 326 324 305 306 252 160 132 137 22 127 124 152 54 141 200 202 220 222 173 207 182 196 220 161 173 171 180 179 185 186 191
339 338 336 339 336 330 346 45 14 346 47 249 276 246 281 303 290 343 355 108 102 126 163 179 157 206 207 208 118 167 195 215 211 205 140 201 222 178 176 180 184 185 189 195 197
336 336 334 334 331 322 336 79 124 224 312 279 254 243 267 245 334 356 10 141 157 177 131 122 222 221 187 191 184 232 241 253 289 226 174 213 232 178 179 197 193 184 191 198 190
336 337 333 332 325 27 30 137 125 144 94 301 252 304 305 154 49 1 28 319 178 184 191 174 234 169 184 183 194 218 229 227 209 352 211 133 293 178 198 189 196 203 210 195 197
336 336 336 329 44 315 49 171 289 194 57 284 343 350 335 328 65 18 348 78 300 215 175 232 234 197 197 203 172 213 215 239 254 324 219 164 260 234 184 196 202 203 205 199 197
334 333 339 355 318 30 291 329 294 61 359 17 1 325 336 59 315 346 357 21 352 309 105 224 197 199 207 210 182 237 161 205 229 211 302 227 194 257 184 201 209 207 207 205 201
333 333 339 14 36 244 314 309 66 51 243 3 64 2 15 359 9 300 7 15 48 311 254 241 240 197 221 211 201 175 338 133 113 135 237 226 211 257 191 209 213 213 210 203 201
332 326 327 315 303 320 320 46 42 151 350 35 344 17 78 347 357 358 45 24 47 25 11 335 245 179 247 223 199 177 153 273 234 201 233 206 224 233 196 220 210 203 208 205 200
330 320 281 233 281 313 42 50 185 36 44 5 30 65 105 1 347 340 48 70 24 68 69 359 279 21 15 194 199 203 179 169 195 192 226 181 225 241 224 239 217 215 209 196 198
327 337 348 271 303 113 67 60 185 208 310 308 326 106 331 323 95 356 28 115 112 352 99 29 274 328 286 331 4 212 210 191 98 241 169 199 244 295 243 221 228 222 177 195 198
331 356 290 328 335 68 78 230 184 312 315 144 195 195 191 246 145 107 233 138 141 208 231 161 292 284 310 309 221 194 260 195 198 194 242 264 194 228 198 224 234 206 193 205 200
34 18 278 340 49 47 101 273 300 315 342 236 215 240 207 183 184 213 220 162 129 171 106 157 162 293 353 230 234 187 225 269 174 195 209 168 247 217 192 199 221 208 211 202 201
28 7 320 348 52 34 31 315 292 283 342 297 228 209 195 188 209 236 213 151 141 143 125 166 192 266 243 265 290 319 278 235 224 221 235 144 248 207 210 213 224 214 205 206 204
355 294 319 30 62 349 323 299 273 314 323 313 290 196 164 197 219 224 211 109 131 138 167 174 94 313 300 303 66 150 323 319 289 314 211 220 238 267 237 250 236 231 222 207 207
10 7 338 35 61 59 335 322 312 307 291 263 280 310 90 242 243 222 212 178 153 139 142 106 150 209 250 25 23 302 302 322 18 272 253 232 228 198 263 247 256 254 237 199 200
29 204 179 342 324 317 236 267 296 314 355 334 299 190 67 276 278 226 231 151 71 142 78 107 243 247 261 270 275 267 275 287 266 245 230 251 218 234 220 230 246 216 283 263 226
84 29 79 273 288 301 314 243 287 306 328 284 257 281 281 249 226 306 318 109 203 128 136 177 244 276 275 253 248 262 261 261 256 252 246 260 264 325 317 336 356 3 309 259 233
203 309 147 268 275 278 263 320 315 305 254 259 288 319 255 249 243 249 247 231 217 164 176 175 208 252 258 294 315 272 235 227 93 32 306 237 274 311 347 40 15 347 340 309 297